THORAD AGENA D DEB *, 5824

Orbit data source: Space-Track

THORAD AGENA D DEB *, 5824 is space debris in SSO originally from a launch on Wed, 08 Apr 1970 UTC launched from the Air Force Western Test Range (AFWTR). Debris objects in space refer to the collection of defunct objects orbiting the Earth. Examples of debris include non-operational satellites, rocket bodies, and fragments generated from explosions, collisions, or faulty payload assembly.

Loading next visibility...
Identifier
5824, 1970-025MJ
Orbit
SSO
Country
Flag of USUS
Related business
Manufacturer
Unknown
Mission
Spacecraft
Bus & Motor
Unknown
Mass
Unknown
Launch date (UTC)
1970-04-08 (56 years ago)
Launch vehicle
Unknown
Launch site
Air Force Western Test Range (AFWTR)
Object type
Payload
Rocket body
Debris
Shape & HBR
Unknown shape, 0.1 m
Radar Cross Section
Medium (>0.1 m² and <1 m²)

Expand to show TLE details & history
Last TLE update: 4 days ago

TLE from 4 days ago
0 THORAD AGENA D DEB *
1  5824U 70025MJ  26169.39308461  .00000533  00000-0  43995-3 0  9995
2  5824  97.8844 229.5368 0596135 279.9970  73.4427 13.31141919677121
Epoch: 2026-06-18T09:26Z
TLE epoch observation values (Epoch: 2026-06-18T09:26:02.510Z)
Latitude
0.00002°
Longitude
-178.61072°
Altitude
1,042.648 km
Speed
7.38 km/s
True Right ascension
15h 18m 08s
True Declination
0° 00' 00"
Sunlit
Object was in full shadow at epoch
Visualization orbit readout
Latitude
Unknown
Longitude
Unknown
Altitude
Unknown
Speed
Unknown
Apparent Right ascension
Unknown
Apparent Declination
Unknown
Sunlit
N/A
Visualization observer readout
Local Sidereal Time
23:27:26
Azimuth
Unknown
Elevation
Unknown
Doppler factor
Unknown
Orbital elements
Apogee altitude
1,587.851 km
Perigee altitude
691.523 km
Semi-major axis
7,517.824 km
Eccentricity
0.05961
Inclination
97.8844°
RAAN
229.5368°
Arg. of periapsis
279.997°
True anomaly
80.11742°
Mean anomaly
73.4427°
Eccentric anomaly
76.76762°
Mean motion
3.3297 °/min
Orbital period
108.12 mins
BSTAR
0.00043995
Loading maneuver chart data...
Computing Atmospheric mass density...

Documentation

Showing up to 5 results
|